Time,TemperatureF,DewpointF,PressureIn,WindDirection,WindDirectionDegrees,WindSpeedMPH,WindSpeedGustMPH,Humidity,HourlyPrecipIn,Conditions,Clouds,dailyrainin,SoftwareType,DateUTC
2013-04-12 00:03:00,46.0,44.0,29.85,SSW,200,0.0,3.0,94,0.00,,,1.35,,2013-04-12 05:03:00,
2013-04-12 00:12:00,46.0,44.0,29.85,SSW,200,0.0,3.0,94,0.00,,,1.35,,2013-04-12 05:12:00,
2013-04-12 00:23:00,47.0,46.0,29.86,South,184,2.0,4.0,95,0.00,,,1.35,,2013-04-12 05:23:00,
2013-04-12 00:32:00,47.0,45.0,29.85,South,184,1.0,3.0,94,0.00,,,1.35,,2013-04-12 05:32:00,
2013-04-12 00:42:00,47.0,45.0,29.85,South,184,1.0,3.0,94,0.00,,,1.35,,2013-04-12 05:42:00,
2013-04-12 00:52:00,46.0,44.0,29.86,South,184,1.0,3.0,94,0.00,,,1.35,,2013-04-12 05:52:00,
2013-04-12 01:02:00,46.0,44.0,29.85,South,184,1.0,3.0,94,0.00,,,1.35,,2013-04-12 06:02:00,
2013-04-12 01:12:00,46.0,44.0,29.85,South,184,1.0,3.0,94,0.00,,,1.35,,2013-04-12 06:12:00,
2013-04-12 01:22:00,46.0,44.0,29.86,South,184,1.0,2.0,94,0.00,,,1.35,,2013-04-12 06:22:00,
2013-04-12 01:32:00,46.0,44.0,29.86,South,184,0.0,2.0,94,0.00,,,1.35,,2013-04-12 06:32:00,
2013-04-12 01:42:00,46.0,44.0,29.86,South,184,0.0,2.0,94,0.00,,,1.35,,2013-04-12 06:42:00,
2013-04-12 01:52:00,46.0,45.0,29.86,South,184,0.0,0.0,95,0.00,,,1.19,,2013-04-12 06:52:00,
2013-04-12 02:01:00,46.0,45.0,29.86,South,184,0.0,2.0,95,0.00,,,1.19,,2013-04-12 07:01:00,
2013-04-12 02:11:00,46.0,45.0,29.86,South,184,0.0,2.0,95,0.00,,,1.19,,2013-04-12 07:11:00,
2013-04-12 02:22:00,46.0,45.0,29.86,South,184,0.0,1.0,95,0.00,,,1.19,,2013-04-12 07:22:00,
2013-04-12 02:32:00,45.0,44.0,29.86,South,184,1.0,2.0,95,0.00,,,1.19,,2013-04-12 07:32:00,
2013-04-12 02:42:00,45.0,44.0,29.86,South,184,1.0,2.0,95,0.00,,,1.19,,2013-04-12 07:42:00,
2013-04-12 02:52:00,45.0,44.0,29.86,South,184,0.0,2.0,95,0.00,,,1.12,,2013-04-12 07:52:00,
2013-04-12 03:03:00,45.0,44.0,29.86,South,184,0.0,1.0,95,0.00,,,1.12,,2013-04-12 08:03:00,
2013-04-12 03:12:00,45.0,44.0,29.86,South,184,0.0,1.0,95,0.00,,,1.12,,2013-04-12 08:12:00,
2013-04-12 03:22:00,45.0,44.0,29.85,South,184,0.0,0.0,96,0.00,,,1.12,,2013-04-12 08:22:00,
2013-04-12 03:32:00,45.0,44.0,29.85,South,184,0.0,1.0,95,0.00,,,1.12,,2013-04-12 08:32:00,
2013-04-12 03:42:00,45.0,44.0,29.85,South,184,0.0,1.0,95,0.00,,,1.12,,2013-04-12 08:42:00,
2013-04-12 03:52:00,45.0,44.0,29.85,South,184,0.0,1.0,96,0.00,,,1.08,,2013-04-12 08:52:00,
2013-04-12 04:02:00,45.0,44.0,29.85,South,184,0.0,0.0,96,0.00,,,1.08,,2013-04-12 09:02:00,
2013-04-12 04:12:00,45.0,44.0,29.85,South,184,0.0,0.0,96,0.00,,,1.08,,2013-04-12 09:12:00,
2013-04-12 04:22:00,45.0,44.0,29.86,South,184,0.0,1.0,96,0.00,,,1.08,,2013-04-12 09:22:00,
2013-04-12 04:33:00,45.0,44.0,29.87,South,184,0.0,1.0,96,0.00,,,1.08,,2013-04-12 09:33:00,
2013-04-12 04:43:00,45.0,44.0,29.87,South,184,0.0,1.0,96,0.00,,,1.08,,2013-04-12 09:43:00,
2013-04-12 04:52:00,45.0,44.0,29.88,South,184,0.0,2.0,96,0.00,,,1.06,,2013-04-12 09:52:00,
2013-04-12 05:03:00,45.0,44.0,29.88,South,184,0.0,2.0,96,0.00,,,1.06,,2013-04-12 10:03:00,
2013-04-12 05:12:00,45.0,44.0,29.88,South,184,0.0,2.0,96,0.00,,,1.06,,2013-04-12 10:12:00,
2013-04-12 05:23:00,45.0,44.0,29.88,SSW,204,0.0,2.0,95,0.00,,,1.06,,2013-04-12 10:23:00,
2013-04-12 05:34:00,45.0,44.0,29.88,SSW,204,0.0,1.0,95,0.00,,,1.06,,2013-04-12 10:34:00,
2013-04-12 05:42:00,45.0,44.0,29.88,SSW,204,0.0,1.0,95,0.00,,,1.06,,2013-04-12 10:42:00,
2013-04-12 05:52:00,45.0,44.0,29.89,SSW,204,0.0,0.0,95,0.00,,,1.02,,2013-04-12 10:52:00,
2013-04-12 06:02:00,44.0,43.0,29.90,WSW,246,0.0,2.0,95,0.00,,,1.02,,2013-04-12 11:02:00,
2013-04-12 06:13:00,44.0,43.0,29.90,WSW,246,0.0,2.0,95,0.00,,,1.02,,2013-04-12 11:13:00,
2013-04-12 06:22:00,45.0,44.0,29.90,WSW,246,0.0,1.0,95,0.00,,,1.02,,2013-04-12 11:22:00,
2013-04-12 06:32:00,44.0,43.0,29.91,WSW,246,0.0,2.0,95,0.00,,,1.02,,2013-04-12 11:32:00,
2013-04-12 06:42:00,44.0,43.0,29.91,WSW,246,0.0,2.0,95,0.00,,,1.02,,2013-04-12 11:42:00,
2013-04-12 06:52:00,44.0,42.0,29.91,WSW,246,0.0,1.0,94,0.00,,,0.71,,2013-04-12 11:52:00,
2013-04-12 07:02:00,44.0,43.0,29.93,WSW,246,0.0,2.0,95,0.00,,,0.71,,2013-04-12 12:02:00,
2013-04-12 07:13:00,44.0,43.0,29.93,WSW,246,0.0,2.0,95,0.00,,,0.71,,2013-04-12 12:13:00,
2013-04-12 07:22:00,44.0,43.0,29.93,WSW,245,0.0,2.0,95,0.00,,,0.71,,2013-04-12 12:22:00,
2013-04-12 07:33:00,44.0,43.0,29.93,WSW,245,0.0,1.0,96,0.00,,,0.71,,2013-04-12 12:33:00,
2013-04-12 07:42:00,44.0,43.0,29.93,WSW,245,0.0,1.0,96,0.00,,,0.71,,2013-04-12 12:42:00,
2013-04-12 07:52:00,44.0,43.0,29.94,WSW,245,0.0,2.0,96,0.00,,,0.55,,2013-04-12 12:52:00,
2013-04-12 08:03:00,46.0,45.0,29.94,WSW,245,0.0,2.0,96,0.00,,,0.55,,2013-04-12 13:03:00,
2013-04-12 08:12:00,46.0,45.0,29.94,WSW,245,0.0,2.0,96,0.00,,,0.55,,2013-04-12 13:12:00,
2013-04-12 08:22:00,47.0,45.0,29.95,WSW,245,0.0,0.0,93,0.00,,,0.55,,2013-04-12 13:22:00,
2013-04-12 08:32:00,48.0,45.0,29.96,WSW,245,0.0,1.0,90,0.00,,,0.55,,2013-04-12 13:32:00,
2013-04-12 08:42:00,48.0,45.0,29.96,WSW,245,0.0,1.0,90,0.00,,,0.55,,2013-04-12 13:42:00,
2013-04-12 08:52:00,49.0,46.0,29.95,WSW,245,0.0,1.0,89,0.00,,,0.45,,2013-04-12 13:52:00,
2013-04-12 09:03:00,50.0,46.0,29.96,West,280,0.0,2.0,86,0.00,,,0.45,,2013-04-12 14:03:00,
2013-04-12 09:12:00,50.0,46.0,29.96,West,280,0.0,2.0,86,0.00,,,0.45,,2013-04-12 14:12:00,
2013-04-12 09:22:00,51.0,46.0,29.96,West,280,0.0,2.0,84,0.00,,,0.45,,2013-04-12 14:22:00,
2013-04-12 09:33:00,52.0,48.0,29.97,West,280,0.0,3.0,86,0.00,,,0.45,,2013-04-12 14:33:00,
2013-04-12 09:42:00,52.0,48.0,29.97,West,280,0.0,3.0,86,0.00,,,0.45,,2013-04-12 14:42:00,
2013-04-12 09:52:00,53.0,47.0,29.98,WNW,298,1.0,3.0,79,0.00,,,0.31,,2013-04-12 14:52:00,
2013-04-12 10:02:00,54.0,47.0,29.98,WNW,299,0.0,4.0,76,0.00,,,0.31,,2013-04-12 15:02:00,
2013-04-12 10:12:00,54.0,47.0,29.98,WNW,299,0.0,4.0,76,0.00,,,0.31,,2013-04-12 15:12:00,
2013-04-12 10:22:00,55.0,46.0,29.98,WNW,299,0.0,2.0,71,0.00,,,0.31,,2013-04-12 15:22:00,
2013-04-12 10:33:00,56.0,45.0,29.98,WNW,294,0.0,3.0,67,0.00,,,0.31,,2013-04-12 15:33:00,
2013-04-12 10:43:00,56.0,45.0,29.98,WNW,294,0.0,3.0,67,0.00,,,0.31,,2013-04-12 15:43:00,
2013-04-12 10:53:00,57.0,46.0,29.99,North,5,1.0,3.0,67,0.00,,,0.30,,2013-04-12 15:53:00,
2013-04-12 11:03:00,58.0,45.0,29.99,NNW,342,0.0,3.0,62,0.00,,,0.30,,2013-04-12 16:03:00,
2013-04-12 11:13:00,58.0,45.0,29.99,NNW,342,0.0,3.0,62,0.00,,,0.30,,2013-04-12 16:13:00,
2013-04-12 11:23:00,58.0,42.0,29.99,NNW,333,1.0,3.0,56,0.00,,,0.30,,2013-04-12 16:23:00,
2013-04-12 11:33:00,58.0,46.0,29.99,SSW,205,1.0,6.0,64,0.00,,,0.30,,2013-04-12 16:33:00,
2013-04-12 11:42:00,58.0,46.0,29.99,SSW,205,1.0,6.0,64,0.00,,,0.30,,2013-04-12 16:42:00,
2013-04-12 11:52:00,59.0,45.0,29.99,SSW,210,1.0,4.0,60,0.00,,,0.14,,2013-04-12 16:52:00,
2013-04-12 12:03:00,60.0,45.0,29.99,WSW,242,3.0,6.0,57,0.00,,,0.14,,2013-04-12 17:03:00,
2013-04-12 12:12:00,60.0,45.0,29.99,WSW,242,3.0,6.0,57,0.00,,,0.14,,2013-04-12 17:12:00,
2013-04-12 12:23:00,61.0,48.0,29.99,West,267,4.0,7.0,62,0.00,,,0.14,,2013-04-12 17:23:00,
2013-04-12 12:33:00,62.0,49.0,29.99,NW,313,3.0,7.0,62,0.00,,,0.14,,2013-04-12 17:33:00,
2013-04-12 12:44:00,62.0,49.0,29.99,NW,313,3.0,7.0,62,0.00,,,0.14,,2013-04-12 17:44:00,
2013-04-12 12:57:00,62.0,50.0,29.99,SW,226,1.0,6.0,65,0.00,,,0.06,,2013-04-12 17:57:00,
2013-04-12 13:10:00,63.0,48.0,29.98,SW,230,2.0,7.0,59,0.00,,,0.06,,2013-04-12 18:10:00,
2013-04-12 13:17:00,63.0,48.0,29.98,SW,230,2.0,7.0,59,0.00,,,0.06,,2013-04-12 18:17:00,
2013-04-12 14:26:00,65.0,45.0,29.97,WSW,241,4.0,9.0,49,0.00,,,0.01,,2013-04-12 19:26:00,
2013-04-12 14:27:00,65.0,47.0,29.96,SSW,206,3.0,8.0,52,0.00,,,0.01,,2013-04-12 19:27:00,
2013-04-12 14:32:00,66.0,42.0,29.96,SW,232,7.0,10.0,42,0.00,,,0.01,,2013-04-12 19:32:00,
2013-04-12 14:43:00,66.0,42.0,29.96,SW,232,7.0,10.0,42,0.00,,,0.01,,2013-04-12 19:43:00,
2013-04-12 14:52:00,67.0,44.0,29.95,WSW,238,6.0,11.0,43,0.00,,,0.00,,2013-04-12 19:52:00,
2013-04-12 15:02:00,67.0,44.0,29.95,WSW,254,6.0,11.0,44,0.00,,,0.00,,2013-04-12 20:02:00,
2013-04-12 15:12:00,67.0,44.0,29.95,WSW,254,6.0,11.0,44,0.00,,,0.00,,2013-04-12 20:12:00,
2013-04-12 15:22:00,67.0,43.0,29.94,WNW,284,4.0,13.0,42,0.00,,,0.00,,2013-04-12 20:22:00,
2013-04-12 15:32:00,68.0,46.0,29.93,NW,323,6.0,11.0,46,0.00,,,0.00,,2013-04-12 20:32:00,
2013-04-12 15:42:00,68.0,46.0,29.93,NW,323,6.0,11.0,46,0.00,,,0.00,,2013-04-12 20:42:00,
2013-04-12 15:52:00,68.0,43.0,29.93,West,259,5.0,11.0,40,0.00,,,0.00,,2013-04-12 20:52:00,
2013-04-12 16:02:00,68.0,49.0,29.93,WSW,240,7.0,11.0,51,0.00,,,0.00,,2013-04-12 21:02:00,
2013-04-12 16:12:00,68.0,49.0,29.93,WSW,240,7.0,11.0,51,0.00,,,0.00,,2013-04-12 21:12:00,
2013-04-12 16:22:00,68.0,46.0,29.93,West,273,4.0,9.0,46,0.00,,,0.00,,2013-04-12 21:22:00,
2013-04-12 16:33:00,68.0,47.0,29.92,West,280,3.0,10.0,47,0.00,,,0.00,,2013-04-12 21:33:00,
2013-04-12 16:43:00,68.0,47.0,29.92,West,280,3.0,10.0,47,0.00,,,0.00,,2013-04-12 21:43:00,
2013-04-12 16:52:00,69.0,46.0,29.92,West,277,6.0,10.0,44,0.00,,,0.00,,2013-04-12 21:52:00,
2013-04-12 17:02:00,69.0,47.0,29.92,West,263,6.0,10.0,45,0.00,,,0.00,,2013-04-12 22:02:00,
2013-04-12 17:13:00,69.0,47.0,29.92,West,263,6.0,10.0,45,0.00,,,0.00,,2013-04-12 22:13:00,
2013-04-12 17:22:00,69.0,46.0,29.91,WSW,242,3.0,8.0,43,0.00,,,0.00,,2013-04-12 22:22:00,
2013-04-12 17:32:00,69.0,46.0,29.91,SW,218,3.0,9.0,44,0.00,,,0.00,,2013-04-12 22:32:00,
2013-04-12 17:42:00,69.0,46.0,29.91,SW,218,3.0,9.0,44,0.00,,,0.00,,2013-04-12 22:42:00,
2013-04-12 17:52:00,69.0,46.0,29.91,West,275,2.0,10.0,43,0.00,,,0.00,,2013-04-12 22:52:00,
2013-04-12 18:03:00,69.0,47.0,29.92,SW,225,4.0,7.0,46,0.00,,,0.00,,2013-04-12 23:03:00,
2013-04-12 18:12:00,69.0,47.0,29.92,SW,225,4.0,7.0,46,0.00,,,0.00,,2013-04-12 23:12:00,
2013-04-12 18:22:00,69.0,48.0,29.91,WSW,252,3.0,5.0,47,0.00,,,0.00,,2013-04-12 23:22:00,
2013-04-12 18:32:00,69.0,49.0,29.91,WSW,243,1.0,3.0,49,0.00,,,0.00,,2013-04-12 23:32:00,
2013-04-12 18:42:00,69.0,49.0,29.91,WSW,243,1.0,3.0,49,0.00,,,0.00,,2013-04-12 23:42:00,
2013-04-12 18:52:00,69.0,49.0,29.91,SW,214,1.0,4.0,49,0.00,,,0.00,,2013-04-12 23:52:00,
2013-04-12 19:02:00,69.0,47.0,29.91,South,186,2.0,5.0,46,0.00,,,0.00,,2013-04-13 00:02:00,
2013-04-12 19:12:00,69.0,47.0,29.91,South,186,2.0,5.0,46,0.00,,,0.00,,2013-04-13 00:12:00,
2013-04-12 19:22:00,68.0,48.0,29.91,South,186,0.0,2.0,48,0.00,,,0.00,,2013-04-13 00:22:00,
2013-04-12 19:32:00,68.0,47.0,29.91,South,186,0.0,1.0,47,0.00,,,0.00,,2013-04-13 00:32:00,
2013-04-12 19:42:00,68.0,47.0,29.91,South,186,0.0,1.0,47,0.00,,,0.00,,2013-04-13 00:42:00,
2013-04-12 19:52:00,67.0,48.0,29.91,South,186,0.0,1.0,51,0.00,,,0.00,,2013-04-13 00:52:00,
2013-04-12 20:02:00,66.0,50.0,29.91,South,186,0.0,1.0,56,0.00,,,0.00,,2013-04-13 01:02:00,
2013-04-12 20:12:00,66.0,50.0,29.91,South,186,0.0,1.0,56,0.00,,,0.00,,2013-04-13 01:12:00,
2013-04-12 20:22:00,66.0,52.0,29.92,South,185,2.0,3.0,60,0.00,,,0.00,,2013-04-13 01:22:00,
2013-04-12 20:32:00,66.0,50.0,29.92,SE,142,1.0,3.0,56,0.00,,,0.00,,2013-04-13 01:32:00,
2013-04-12 20:42:00,66.0,50.0,29.92,SE,142,1.0,3.0,56,0.00,,,0.00,,2013-04-13 01:42:00,
2013-04-12 20:52:00,65.0,50.0,29.93,SE,139,2.0,4.0,59,0.00,,,0.00,,2013-04-13 01:52:00,
2013-04-12 21:02:00,65.0,52.0,29.93,SE,144,3.0,5.0,62,0.00,,,0.00,,2013-04-13 02:02:00,
2013-04-12 21:12:00,65.0,52.0,29.93,SE,144,3.0,5.0,62,0.00,,,0.00,,2013-04-13 02:12:00,
2013-04-12 21:22:00,64.0,52.0,29.94,SSE,150,3.0,5.0,66,0.00,,,0.00,,2013-04-13 02:22:00,
2013-04-12 21:32:00,62.0,53.0,29.94,SSE,154,3.0,5.0,73,0.00,,,0.00,,2013-04-13 02:32:00,
2013-04-12 21:42:00,62.0,53.0,29.94,SSE,154,3.0,5.0,73,0.00,,,0.00,,2013-04-13 02:42:00,
2013-04-12 21:52:00,61.0,52.0,29.95,SSE,155,3.0,5.0,71,0.00,,,0.00,,2013-04-13 02:52:00,
2013-04-12 22:02:00,61.0,52.0,29.96,SSE,150,3.0,4.0,73,0.00,,,0.00,,2013-04-13 03:02:00,
2013-04-12 22:12:00,61.0,52.0,29.96,SSE,150,3.0,4.0,73,0.00,,,0.00,,2013-04-13 03:12:00,
2013-04-12 22:23:00,61.0,53.0,29.96,SSE,151,2.0,4.0,75,0.00,,,0.00,,2013-04-13 03:23:00,
2013-04-12 22:33:00,59.0,52.0,29.96,SSE,151,1.0,3.0,79,0.00,,,0.00,,2013-04-13 03:33:00,
2013-04-12 22:42:00,59.0,52.0,29.96,SSE,151,1.0,3.0,79,0.00,,,0.00,,2013-04-13 03:42:00,
2013-04-12 22:53:00,60.0,51.0,29.97,SE,145,3.0,5.0,73,0.00,,,0.00,,2013-04-13 03:53:00,
2013-04-12 23:03:00,60.0,51.0,29.97,SSE,148,3.0,4.0,73,0.00,,,0.00,,2013-04-13 04:03:00,
2013-04-12 23:12:00,60.0,51.0,29.97,SSE,148,3.0,4.0,73,0.00,,,0.00,,2013-04-13 04:12:00,
2013-04-12 23:23:00,60.0,51.0,29.97,SSE,149,3.0,4.0,72,0.00,,,0.00,,2013-04-13 04:23:00,
2013-04-12 23:33:00,59.0,51.0,29.98,SSE,150,2.0,3.0,75,0.00,,,0.00,,2013-04-13 04:33:00,
2013-04-12 23:42:00,59.0,51.0,29.98,SSE,150,2.0,3.0,75,0.00,,,0.00,,2013-04-13 04:42:00,
2013-04-12 23:53:00,59.0,50.0,29.98,SSE,150,3.0,4.0,73,0.00,,,0.00,,2013-04-13 04:53:00,